Flag for Haiti Weather past 2 weeks in Cap-Haïtien, Haiti

Now
68 °F

Passing clouds.


Feels Like: 68 °F
Forecast: 74 / 84 °F
Wind: 6 mph from Southeast

Location: Santiago

Current Time: Dec 22, 2014 at 5:17:47 AM

Latest Report: Dec 22, 2014 at 5:00 AM


Visibility: N/A

Pressure: 30.01 "Hg

Humidity: 100%

Dew point: 68 °F

Location of Cap-HaïtienLocation

Historic Weather in Cap-Haïtien — Graph

°F

Cap-Haïtien temperature yesterday

Maximum temperature yesterday: 84 °F (at 12:00 PM)
Minimum temperature yesterday: 64 °F (at 7:00 AM)
Average temperature yesterday: 74 °F

Past Weeks' High & Low Weather Summary

 TemperatureHumidityPressure
High86 °F (Dec 10, 1:00 PM)100% (Dec 7, 6:00 AM)30.09 "Hg (Dec 7, 6:00 AM)
Low61 °F (Dec 8, 5:00 AM)29% (Dec 15, 12:00 AM)29.83 "Hg (Dec 14, 3:00 AM)
Average73 °F86%29.98 "Hg
* Reported Dec 7 3:00 AM — Dec 22 3:00 AM, Cap-Haïtien, Weather by CustomWeather, © 2014

Note: Actual official high and low records may vary slightly from our data, if they occured in-between our weather recording intervals... More about our weather records

Advertising

Cap-Haïtien weather history for previous 24 hours

 ConditionsComfort  
Time TempWeatherWind HumidityBarometerVisibility
3:00 AM
Dec 22
70 °FPassing clouds.5 mph100%30.01 "HgN/A
2:00 AM70 °FPassing clouds.5 mph100%30.04 "HgN/A
1:00 AM70 °FPassing clouds.5 mph100%30.04 "HgN/A
12:00 AM70 °FPassing clouds.3 mph100%30.07 "HgN/A
11:00 PM
Dec 21
70 °FPassing clouds.5 mph100%30.09 "HgN/A
10:00 PM72 °FPassing clouds.7 mph100%30.09 "HgN/A
9:00 PM73 °FPassing clouds.5 mph100%30.09 "HgN/A
8:00 PM73 °FPassing clouds.13 mph100%30.07 "HgN/A
7:00 PM75 °FPassing clouds.7 mph94%30.04 "HgN/A
6:00 PM77 °FPassing clouds.7 mph89%30.01 "HgN/A
5:00 PM79 °FScattered clouds.10 mph79%30.01 "HgN/A
4:00 PM82 °FPassing clouds.14 mph62%29.98 "HgN/A
3:00 PM82 °FScattered clouds.18 mph70%29.98 "HgN/A
2:00 PM82 °FScattered clouds.14 mph70%29.98 "HgN/A
1:00 PM82 °FPartly sunny.12 mph70%30.01 "HgN/A
12:00 PM84 °FScattered clouds.12 mph66%30.04 "HgN/A
11:00 AM81 °FScattered clouds.14 mph74%30.07 "HgN/A
10:00 AM79 °FScattered clouds.9 mph79%30.09 "HgN/A
9:00 AM77 °FWarm.8 mph83%30.09 "HgN/A
8:00 AM70 °FPassing clouds.3 mph94%30.07 "HgN/A
7:00 AM64 °FPassing clouds.No wind100%30.04 "HgN/A
6:00 AM66 °FFog.No wind100%30.04 "Hg3 mi
5:00 AM66 °FPassing clouds.3 mph100%30.01 "HgN/A
Weather by CustomWeather, © 2014

See weather overviewHow to use our weather pages